Regional Weather Roundup
Issued by NWS

Home | Current Version | Previous Version | Graphics & Text | Print | Product List | Glossary On
Versions: 1 2 3 4 5 6 7 8 9 10 11 12 13 14 15 16 17 18 19 20 21 22 23 24 25 26 27 28 29 30 31 32 33 34 35 36 37 38 39 40 41 42 43 44 45 46 47 48 49 50
000
ASUS45 KBOU 221707
RWRCO

WEATHER ROUNDUP FOR COLORADO
NATIONAL WEATHER SERVICE DENVER/BOULDER CO
1000 AM MST SAT NOV 22 2014

NOTE: "FAIR" INDICATES FEW OR NO CLOUDS BELOW 12000 FEET WITH NO
SIGNIFICANT WEATHER AND/OR OBSTRUCTIONS TO VISIBILITY.

COZ001>005-013-030-031-221800-
...NORTHWEST COLORADO...

CITY           SKY/WX    TMP DP  RH WIND       PRES   REMARKS
CRAIG          MOSUNNY   38  23  55 E3        29.92F
HAYDEN         MOSUNNY   36  18  48 E12       29.92F
MEEKER         MOSUNNY   46  20  35 S16G25    29.94F
MOUNT WERNER   NOT AVBL
STEAMBOAT SPGS PTSUNNY   27  18  69 CALM      29.94F
WALDEN         MOSUNNY   36  18  48 S23G30    29.90S
$$

COZ006>008-011-221800-
...WEST CENTRAL VALLEYS...

CITY           SKY/WX    TMP DP  RH WIND       PRES   REMARKS
GRAND JUNCTION MOSUNNY   39  20  46 E14G25    30.01F
MONTROSE       SUNNY     40  22  48 S3        30.04F
EAGLE          MOSUNNY   27  19  74 SW3       30.03F
RIFLE          MOSUNNY   31  20  63 CALM      30.02F
DELTA          SUNNY     40  21  47 CALM      30.06F
NUCLA          SUNNY     37  23  56 CALM      30.10F
$$

COZ017>023-064>068-221800-
...SOUTHWEST COLORADO...

CITY           SKY/WX    TMP DP  RH WIND       PRES   REMARKS
DURANGO        SUNNY     37  21  52 CALM      30.11F
CORTEZ         SUNNY     39  22  50 CALM      30.11F
PAGOSA SPRINGS SUNNY     38  20  48 CALM      30.11F
TELLURIDE      SUNNY     31  17  55 E3        30.12F
WOLF CREEK PAS SUNNY     23  12  63 SW22G28   30.12F WCI   8
$$

COZ009-010-012-014-032>034-037-058>063-221800-
...CENTRAL COLORADO...

CITY           SKY/WX    TMP DP  RH WIND       PRES   REMARKS
ASPEN          SUNNY     31  17  56 S8        29.99F WCI  23
BUENA VISTA    SUNNY     42  12  29 SW20G36   29.94F
COPPER MTN     NOT AVBL
BERTHOUD PASS  FAIR      12   9  85 NW35G49   29.95S WCI -10
COTTONWOOD PAS SUNNY     36   9  32 W28G45    29.97F
GUNNISON       MOSUNNY   18  12  79 CALM      30.16F
KREMMLING      SUNNY     32  18  55 SE3       29.99F
LEADVILLE      SUNNY     31  10  41 N18       30.00F WCI  19
SALIDA         SUNNY     46  15  29 SW18G30   30.02F
SUNLIGHT       SUNNY     30  21  69 SW3       30.04F
WILKERSON PASS MOSUNNY   25   9  50 SW18G28   29.94F WCI  11
$$

COZ069>075-221800-
...SAN LUIS VALLEY/SANGRE DE CRISTO MOUNTAINS...

CITY           SKY/WX    TMP DP  RH WIND       PRES   REMARKS
ALAMOSA        SUNNY     33  17  51 CALM      30.09F
LA VETA PASS   SUNNY     30  18  59 S20G33    29.98F WCI  18
SAGUACHE       SUNNY     34  18  51 SE8       30.08F WCI  27
$$

COZ035-036-038>040-221800-
...NORTHERN COLORADO FRONT RANGE...

CITY           SKY/WX    TMP DP  RH WIND       PRES   REMARKS
DENVER INTL AP PTSUNNY   56  14  19 SW13      29.73F
DMNS CITY PARK   N/A     58  10  14 SW9G18    29.72F
AURORA         MOSUNNY   55  13  19 SW14      29.74F
FRONT RANGE AP MOSUNNY   55  18  22 SW13G21   29.74F
ERIE MUNI ARPT PTSUNNY   55  15  20 SE9       29.71F
BOULDER MUN AP PTSUNNY   50  18  27 CALM      29.70F
CENTENNIAL     MOSUNNY   55  11  17 SW20G25   29.75F
BROOMFIELD     PTSUNNY   55  12  18 W35G45    29.73F
FORT COLLINS   CLOUDY    34  25  69 N10       29.72F WCI  26
LONGMONT       CLOUDY    45  23  42 N9        29.73F
$$

COZ041-046-047-076>085-087-088-221800-
...PIKES PEAK/PALMER DIVIDE AND SOUTHERN FOOTHILLS...

CITY           SKY/WX    TMP DP  RH WIND       PRES   REMARKS
COLO. SPRINGS  MOSUNNY   49  15  25 E13       29.80F
A. F. ACADEMY  MOSUNNY   54   0  11 VRB7      29.80S
ELLICOTT       NOT AVBL
FALCON         NOT AVBL
FORT CARSON    SUNNY     47  21  35 N5        29.78F
LIMON          SUNNY     56  15  20 CALM      29.76F
MONUMENT HILL  SUNNY     50   5  16 W21       29.80F
TRINIDAD       SUNNY     48  18  30 W12       29.87F
$$

COZ042>045-048>051-090-091-221800-
...NORTHEAST COLORADO...

CITY           SKY/WX    TMP DP  RH WIND       PRES   REMARKS
GREELEY ARPT   CLOUDY    36  21  55 S3        29.73F
AKRON          PTSUNNY   55  14  19 SW18      29.73F
BURLINGTON     SUNNY     59  15  18 SW21      29.76F
WRAY           SUNNY     60  18  19 SW16G22   29.72F
STERLING       PTSUNNY   43  30  61 SW5       29.73F
HOLYOKE        SUNNY     54  23  30 SW14      29.71F
FORT MORGAN    PTSUNNY   46  21  36 W6        29.73F
$$

COZ086-089-092>099-221800-
...SOUTHEAST COLORADO...

CITY           SKY/WX    TMP DP  RH WIND       PRES   REMARKS
PUEBLO         SUNNY     53  23  31 W15       29.80F
LA JUNTA       SUNNY     50  31  48 SW13      29.81F
LAMAR          SUNNY     47  33  58 NW7       29.80F
SPRINGFIELD      N/A     59  22  24 SW6       29.83F
$$


USA.gov is the U.S. government's official web portal to all federal, state and local government web resources and services.